Location: Zagreb
(45.8000°N, 16.0000°E)
Time: 01:24:26
(UTC+01:00)

NO-84 - Pass Details

Date: 31 October 2020
Orbit: 323 x 458 km, 55.0° (Epoch: 25 November)

Event Time Altitude Azimuth Distance (km) Brightness Sun altitude
Exits shadow 04:47:50 18° 356° (N) 1,086 ? -19.1°
Drops below altitude 10° 04:49:52 10° 35° (NE) 1,438 ? -18.8°
Sets 04:52:20 0° 56° (NE) 2,260 ? -18.3°
